CARTOSAT-2 (IRS-P7)

Last updated on Wed Feb 14 2024 00:02:24 GMT+0000 (Coordinated Universal Time)

1 29710U 07001B 24044.60520715 .02700363 27785-5 35997-3 0 9998 2 29710 97.8628 218.2355 0008147 348.6413 75.7261 16.35457102930202
UTC large
Height (km)
Speed (km/s)
/
Latitude / Longitude
Inclination (degrees)
Orbital Period (minutes)
Azimuth
Elevation
Range (km)
Doppler Factor

Next 0 passes for location: London (51.5072 / 0.1276)

Sorry there are no passes over London.